Main page
METAR-TAF:

METAR-TAF

Airports :

Kharg Island, Iran

Kharg Airport

latitude: 29-15-34N, longitude: 50-19-24E, elevation: 5 m

Current weather observation

The report was made 26 minutes ago, at 07:00 UTC
Wind 6 kt from the Northwest
Temperature 39°C
Humidity 51%
Pressure 1000 hPa
Visibility: 7000 m

METAR: OIBQ 190700Z 31006KT 7000 NSC 39/27 Q1000

Time: 11:56 (07:26 UTC)


TAF: missing

Weather observations and forecasts of more than 4000 airports (METAR and TAF reports).

The available stations are represented by yellow and red dots on the map.

Hover mouse over dot to see the name of the station.

Then click to see weather observations and forecasts.

To change the map : click on the green buttons with a black cross to zoom in, on the green button with a dash to zoom out, or on the green arrows for adjacent maps.


METAR-TAF: